Terug naar catalogus

STARLINK-5669

ActiefCommunicatieVLEO
NORAD 55459·PAYLOAD·🇺🇸 United States

Gelanceerd Feb 2, 2023 vanaf Cape Canaveral Space Force Station

Loading…

Volgende Passages (komende 24 uur)

TLE

VersSource: CelesTrak SupGP

Epoch: Sep 14, 2026, 20:44 UTC

1 55459C 23015L   26257.86437500 -.00027320  00000+0 -98946-3 0  2575
2 55459  43.0029 340.4263 0001650 268.8972  74.2055 15.27594323    19

Volg STARLINK-5669 in realtime met AllMySat

Download on the App Store